EAG5512 UNNT-UEEE

Flight info

Callsign EAG5512
Flight time 3h 19m
Altitude 37000
Route DIMID1J DIMID G828 NN A300 TOKMO B911 ENS W105 ERBOG/K0889F390 W39 GISUN W289 ABGUR ABGUR6C
Aircraft A346/H-SDE2E3FGHIJ3J4J5M1RWXY/LB1D1

Departure

Time 2026-04-21 15:13
Airport Novosibirsk Tolmachevo Airport (UNNT)

Arrival

Time 2026-04-21 18:32
Airport Platon Oyunsky Yakutsk International Airport (UEEE)
Time Latitude Longitude Altitude Speed Heading
2026-04-21 14:48 55.01157 82.67014 381 ft 0 kts 171°
2026-04-21 15:02 55.01155 82.67014 381 ft 2 kts 171°
2026-04-21 15:02 55.01121 82.67028 381 ft 8 kts 153°
2026-04-21 15:02 55.01100 82.67159 381 ft 14 kts 85°
2026-04-21 15:02 55.01104 82.67233 381 ft 0 kts 83°
2026-04-21 15:03 55.01107 82.67295 381 ft 9 kts 88°
2026-04-21 15:03 55.01118 82.67423 381 ft 12 kts 63°
2026-04-21 15:03 55.01185 82.67525 382 ft 14 kts 33°
2026-04-21 15:03 55.01275 82.67621 382 ft 16 kts 31°
2026-04-21 15:04 55.01341 82.67691 381 ft 0 kts 31°
2026-04-21 15:06 55.01344 82.67695 381 ft 2 kts 31°
2026-04-21 15:06 55.01378 82.67730 382 ft 9 kts 31°
2026-04-21 15:06 55.01460 82.67763 384 ft 14 kts 342°
2026-04-21 15:06 55.01478 82.67609 379 ft 17 kts 257°
2026-04-21 15:07 55.01448 82.67301 383 ft 30 kts 261°
2026-04-21 15:07 55.01416 82.66945 383 ft 30 kts 261°
2026-04-21 15:07 55.01382 82.66581 383 ft 31 kts 261°
2026-04-21 15:07 55.01348 82.66205 380 ft 32 kts 261°
2026-04-21 15:08 55.01313 82.65821 383 ft 32 kts 261°
2026-04-21 15:08 55.01278 82.65431 381 ft 32 kts 261°
2026-04-21 15:08 55.01242 82.65041 381 ft 33 kts 261°
2026-04-21 15:08 55.01206 82.64643 381 ft 33 kts 261°
2026-04-21 15:09 55.01170 82.64248 383 ft 33 kts 261°
2026-04-21 15:09 55.01134 82.63851 383 ft 33 kts 261°
2026-04-21 15:09 55.01097 82.63449 383 ft 34 kts 261°
2026-04-21 15:09 55.01059 82.63038 380 ft 34 kts 261°
2026-04-21 15:10 55.01022 82.62630 381 ft 34 kts 261°
2026-04-21 15:10 55.00947 82.62405 382 ft 19 kts 234°
2026-04-21 15:10 55.00979 82.62301 384 ft 4 kts 15°
2026-04-21 15:10 55.01003 82.62377 383 ft 9 kts 88°
2026-04-21 15:11 55.01005 82.62424 383 ft 0 kts 84°
2026-04-21 15:12 55.01008 82.62473 383 ft 25 kts 83°
2026-04-21 15:13 55.01084 82.63313 379 ft 111 kts 81°
2026-04-21 15:13 55.01245 82.65063 387 ft 178 kts 81°
2026-04-21 15:13 55.01446 82.67347 983 ft 195 kts 79°
2026-04-21 15:13 55.01669 82.69668 2082 ft 190 kts 79°
2026-04-21 15:14 55.01872 82.71860 2982 ft 186 kts 78°
2026-04-21 15:14 55.02085 82.74158 3415 ft 199 kts 79°
2026-04-21 15:14 55.02317 82.76653 3778 ft 217 kts 81°
2026-04-21 15:14 55.02555 82.79341 4238 ft 229 kts 81°
2026-04-21 15:15 55.02798 82.82120 4947 ft 233 kts 81°
2026-04-21 15:15 55.03131 82.84908 5611 ft 238 kts 65°
2026-04-21 15:15 55.04164 82.87159 6301 ft 241 kts 33°
2026-04-21 15:15 55.05736 82.88330 6815 ft 254 kts 16°
2026-04-21 15:16 55.07479 82.89245 7392 ft 266 kts 14°
2026-04-21 15:16 55.09269 82.90189 8145 ft 271 kts 14°
2026-04-21 15:16 55.11113 82.91060 8854 ft 276 kts
2026-04-21 15:16 55.13012 82.90948 9477 ft 278 kts 342°
2026-04-21 15:17 55.14854 82.89859 10191 ft 281 kts 334°
2026-04-21 15:17 55.16685 82.88589 10964 ft 285 kts 333°
2026-04-21 15:17 55.18540 82.87306 11765 ft 287 kts 333°
2026-04-21 15:17 55.20406 82.86037 12627 ft 287 kts 333°
2026-04-21 15:18 55.22272 82.84780 13475 ft 287 kts 333°
2026-04-21 15:18 55.24147 82.83521 14259 ft 289 kts 333°
2026-04-21 15:18 55.26009 82.82168 15003 ft 289 kts 328°
2026-04-21 15:18 55.27760 82.80454 15732 ft 288 kts 322°
2026-04-21 15:19 55.29400 82.78411 16469 ft 288 kts 318°
2026-04-21 15:19 55.30986 82.76316 17178 ft 289 kts 318°
2026-04-21 15:19 55.32600 82.74168 17877 ft 291 kts 318°
2026-04-21 15:19 55.34264 82.72102 18530 ft 297 kts 326°
2026-04-21 15:20 55.36222 82.70754 19196 ft 307 kts 340°
2026-04-21 15:20 55.38404 82.70299 19618 ft 327 kts 351°
2026-04-21 15:20 55.40752 82.70274 19894 ft 343 kts 353°
2026-04-21 15:20 55.43195 82.70303 20152 ft 357 kts 353°
2026-04-21 15:21 55.45727 82.70325 20410 ft 371 kts 353°
2026-04-21 15:21 55.48324 82.70315 20678 ft 383 kts 353°
2026-04-21 15:21 55.51021 82.70320 21149 ft 389 kts 353°
2026-04-21 15:21 55.53734 82.70320 21762 ft 392 kts 353°
2026-04-21 15:22 55.56473 82.70320 22356 ft 395 kts 353°
2026-04-21 15:22 55.59231 82.70319 22932 ft 398 kts 353°
2026-04-21 15:22 55.62007 82.70316 23498 ft 400 kts 353°
2026-04-21 15:22 55.64810 82.70317 24038 ft 403 kts 352°
2026-04-21 15:23 55.67628 82.70317 24567 ft 406 kts 352°
2026-04-21 15:23 55.70468 82.70318 25096 ft 409 kts 352°
2026-04-21 15:23 55.72356 82.70317 25436 ft 411 kts 352°
2026-04-21 15:23 55.75226 82.70317 25942 ft 413 kts 352°
2026-04-21 15:24 55.79053 82.70318 26625 ft 416 kts 352°
2026-04-21 15:24 55.81959 82.70318 27103 ft 418 kts 352°
2026-04-21 15:24 55.83898 82.70316 27427 ft 420 kts 352°
2026-04-21 15:24 55.86828 82.70316 27892 ft 422 kts 352°
2026-04-21 15:25 55.89776 82.70315 28337 ft 425 kts 351°
2026-04-21 15:25 55.92738 82.70311 28769 ft 427 kts 351°
2026-04-21 15:25 55.95724 82.70350 29179 ft 434 kts 354°
2026-04-21 15:25 55.98763 82.71232 29551 ft 451 kts
2026-04-21 15:26 56.01730 82.73268 29978 ft 467 kts 18°
2026-04-21 15:26 56.04515 82.76475 30360 ft 486 kts 30°
2026-04-21 15:26 56.06956 82.80830 30699 ft 506 kts 43°
2026-04-21 15:26 56.08877 82.86258 30999 ft 525 kts 58°
2026-04-21 15:27 56.10095 82.92508 31411 ft 537 kts 70°
2026-04-21 15:27 56.10930 82.99025 32001 ft 535 kts 72°
2026-04-21 15:27 56.11691 83.05589 32544 ft 533 kts 73°
2026-04-21 15:27 56.12452 83.12104 33007 ft 533 kts 72°
2026-04-21 15:28 56.13238 83.18605 33400 ft 533 kts 72°
2026-04-21 15:28 56.14046 83.25089 33803 ft 533 kts 72°
2026-04-21 15:28 56.14865 83.31593 34191 ft 533 kts 72°
2026-04-21 15:28 56.15680 83.38000 34587 ft 533 kts 71°
2026-04-21 15:29 56.16541 83.44497 35008 ft 531 kts 71°
2026-04-21 15:29 56.17405 83.50931 35433 ft 530 kts 71°
2026-04-21 15:29 56.18269 83.57374 35816 ft 529 kts 71°
2026-04-21 15:29 56.19127 83.63826 36122 ft 530 kts 71°
2026-04-21 15:30 56.19978 83.70286 36383 ft 531 kts 72°
2026-04-21 15:30 56.20825 83.76762 36628 ft 533 kts 72°
2026-04-21 15:30 56.21660 83.83193 36881 ft 534 kts 72°
2026-04-21 15:30 56.22498 83.89692 37115 ft 533 kts 72°
2026-04-21 15:31 56.24186 84.02856 37125 ft 539 kts 72°
2026-04-21 15:31 56.25836 84.16048 37130 ft 539 kts 72°
2026-04-21 15:32 56.27467 84.29259 37134 ft 540 kts 73°
2026-04-21 15:32 56.29077 84.42410 37131 ft 540 kts 73°
2026-04-21 15:33 56.30683 84.55662 37132 ft 540 kts 73°
2026-04-21 15:33 56.32278 84.68920 37139 ft 540 kts 73°
2026-04-21 15:34 56.33856 84.82184 37140 ft 540 kts 73°
2026-04-21 15:34 56.35418 84.95452 37140 ft 540 kts 73°
2026-04-21 15:35 56.37082 85.08659 37139 ft 537 kts 69°
2026-04-21 15:35 56.39450 85.21368 37141 ft 531 kts 61°
2026-04-21 15:36 56.42605 85.33342 37143 ft 523 kts 54°
2026-04-21 15:36 56.46354 85.44552 37143 ft 519 kts 50°
2026-04-21 15:37 56.50185 85.55552 37142 ft 519 kts 50°
2026-04-21 15:37 56.54016 85.66657 37142 ft 519 kts 51°
2026-04-21 15:38 56.57825 85.77812 37140 ft 519 kts 51°
2026-04-21 15:38 56.61616 85.88988 37141 ft 520 kts 51°
2026-04-21 15:39 56.65406 86.00217 37141 ft 520 kts 51°
2026-04-21 15:39 56.69179 86.11454 37137 ft 519 kts 51°
2026-04-21 15:40 56.72939 86.22700 37141 ft 519 kts 51°
2026-04-21 15:40 56.76694 86.33983 37126 ft 519 kts 51°
2026-04-21 15:41 56.80413 86.45214 37114 ft 520 kts 51°
2026-04-21 15:41 56.84157 86.56568 37113 ft 522 kts 51°
2026-04-21 15:42 56.87897 86.67968 37118 ft 522 kts 51°
2026-04-21 15:42 56.91626 86.79388 37114 ft 522 kts 52°
2026-04-21 15:43 56.95344 86.90834 37112 ft 522 kts 52°
2026-04-21 15:43 56.99035 87.02250 37112 ft 522 kts 52°
2026-04-21 15:44 57.02738 87.13760 37100 ft 521 kts 52°
2026-04-21 15:44 57.06422 87.25260 37088 ft 521 kts 52°
2026-04-21 15:45 57.10093 87.36778 37084 ft 521 kts 52°
2026-04-21 15:45 57.13755 87.48323 37077 ft 522 kts 52°
2026-04-21 15:46 57.17384 87.59820 37077 ft 522 kts 52°
2026-04-21 15:46 57.21034 87.71439 37083 ft 522 kts 52°
2026-04-21 15:47 57.24667 87.83064 37084 ft 522 kts 53°
2026-04-21 15:47 57.28289 87.94713 37084 ft 522 kts 53°
2026-04-21 15:48 57.31893 88.06358 37082 ft 523 kts 53°
2026-04-21 15:48 57.35499 88.18068 37084 ft 523 kts 53°
2026-04-21 15:49 57.39102 88.29824 37085 ft 523 kts 53°
2026-04-21 15:49 57.42686 88.41582 37084 ft 523 kts 53°
2026-04-21 15:50 57.46268 88.53391 37084 ft 523 kts 53°
2026-04-21 15:50 57.49834 88.65205 37084 ft 523 kts 53°
2026-04-21 15:51 57.53369 88.76976 37084 ft 523 kts 53°
2026-04-21 15:51 57.56912 88.88833 37084 ft 523 kts 54°
2026-04-21 15:52 57.60455 89.00753 37086 ft 523 kts 54°
2026-04-21 15:52 57.63981 89.12673 37083 ft 524 kts 54°
2026-04-21 15:53 57.67494 89.24614 37093 ft 524 kts 54°
2026-04-21 15:53 57.71003 89.36602 37084 ft 524 kts 54°
2026-04-21 15:54 57.74498 89.48601 37084 ft 524 kts 54°
2026-04-21 15:54 57.77982 89.60623 37083 ft 524 kts 54°
2026-04-21 15:55 57.81436 89.72604 37101 ft 525 kts 54°
2026-04-21 15:55 57.84899 89.84682 37084 ft 525 kts 55°
2026-04-21 15:56 57.88357 89.96806 37085 ft 525 kts 55°
2026-04-21 15:56 57.91806 90.08962 37084 ft 525 kts 55°
2026-04-21 15:57 57.95241 90.21134 37084 ft 525 kts 55°
2026-04-21 15:57 57.98665 90.33333 37085 ft 525 kts 55°
2026-04-21 15:58 58.02066 90.45510 37101 ft 525 kts 56°
2026-04-21 15:58 58.05461 90.57733 37084 ft 525 kts 56°
2026-04-21 15:59 58.08848 90.70005 37083 ft 524 kts 56°
2026-04-21 15:59 58.12215 90.82258 37084 ft 524 kts 56°
2026-04-21 16:00 58.15542 90.94428 37084 ft 523 kts 56°
2026-04-21 16:00 58.18883 91.06722 37083 ft 523 kts 56°
2026-04-21 16:01 58.22207 91.19020 37084 ft 523 kts 57°
2026-04-21 16:01 58.25523 91.31354 37097 ft 523 kts 57°
2026-04-21 16:02 58.28824 91.43695 37097 ft 523 kts 57°
2026-04-21 16:02 58.32115 91.56071 37078 ft 523 kts 57°
2026-04-21 16:03 58.35376 91.68400 37078 ft 523 kts 57°
2026-04-21 16:03 58.38641 91.80816 37077 ft 524 kts 57°
2026-04-21 16:04 58.41898 91.93270 37077 ft 524 kts 57°
2026-04-21 16:04 58.45145 92.05760 37076 ft 523 kts 57°
2026-04-21 16:05 58.48320 92.18297 37078 ft 525 kts 59°
2026-04-21 16:05 58.51327 92.31070 37077 ft 525 kts 60°
2026-04-21 16:06 58.54307 92.43843 37077 ft 525 kts 60°
2026-04-21 16:06 58.57289 92.56616 37076 ft 524 kts 60°
2026-04-21 16:07 58.60243 92.69314 37077 ft 524 kts 60°
2026-04-21 16:07 58.63205 92.82130 37076 ft 524 kts 60°
2026-04-21 16:08 58.67630 93.01393 37061 ft 523 kts 61°
2026-04-21 16:09 58.70566 93.14254 37058 ft 524 kts 61°
2026-04-21 16:09 58.73465 93.27052 37059 ft 524 kts 61°
2026-04-21 16:10 58.76366 93.39940 37058 ft 524 kts 62°
2026-04-21 16:10 58.79257 93.52862 37059 ft 524 kts 62°
2026-04-21 16:11 58.82135 93.65800 37051 ft 524 kts 62°
2026-04-21 16:11 58.84997 93.78756 37051 ft 524 kts 62°
2026-04-21 16:12 58.87363 93.89532 37048 ft 524 kts 62°
2026-04-21 16:12 58.90207 94.02560 37049 ft 524 kts 62°
2026-04-21 16:13 58.93042 94.15580 37052 ft 524 kts 62°
2026-04-21 16:13 58.95859 94.28619 37047 ft 523 kts 63°
2026-04-21 16:14 58.98658 94.41663 37052 ft 523 kts 63°
2026-04-21 16:14 59.01430 94.54667 37040 ft 523 kts 63°
2026-04-21 16:15 59.04205 94.67768 37038 ft 522 kts 63°
2026-04-21 16:15 59.06959 94.80855 37033 ft 522 kts 63°
2026-04-21 16:16 59.09702 94.93970 37039 ft 522 kts 64°
2026-04-21 16:16 59.12431 95.07111 37042 ft 522 kts 64°
2026-04-21 16:17 59.15128 95.20171 37034 ft 522 kts 64°
2026-04-21 16:17 59.17831 95.33353 37032 ft 522 kts 64°
2026-04-21 16:18 59.20515 95.46533 37030 ft 521 kts 64°
2026-04-21 16:18 59.23181 95.59718 37029 ft 521 kts 64°
2026-04-21 16:19 59.25820 95.72846 37032 ft 520 kts 65°
2026-04-21 16:19 59.28453 95.86043 37029 ft 520 kts 65°
2026-04-21 16:20 59.31067 95.99247 37029 ft 520 kts 65°
2026-04-21 16:20 59.33675 96.12508 37021 ft 519 kts 65°
2026-04-21 16:21 59.36260 96.25754 37022 ft 519 kts 65°
2026-04-21 16:21 59.38830 96.39012 37022 ft 519 kts 66°
2026-04-21 16:22 59.41370 96.52207 37020 ft 519 kts 66°
2026-04-21 16:22 59.43913 96.65519 37017 ft 519 kts 66°
2026-04-21 16:23 59.46450 96.78853 37018 ft 519 kts 66°
2026-04-21 16:23 59.48977 96.92199 37011 ft 519 kts 66°
2026-04-21 16:24 59.51482 97.05550 37008 ft 519 kts 66°
2026-04-21 16:24 59.53958 97.18845 37009 ft 519 kts 67°
2026-04-21 16:25 59.56434 97.32229 37012 ft 519 kts 67°
2026-04-21 16:25 59.58893 97.45623 37012 ft 518 kts 67°
2026-04-21 16:26 59.61344 97.59062 37013 ft 518 kts 68°
2026-04-21 16:26 59.63752 97.72367 37011 ft 516 kts 68°
2026-04-21 16:27 59.66179 97.85866 37004 ft 517 kts 68°
2026-04-21 16:27 59.68558 97.99198 37003 ft 516 kts 68°
2026-04-21 16:28 59.70942 98.12648 37003 ft 516 kts 68°
2026-04-21 16:28 59.73305 98.26090 37003 ft 516 kts 68°
2026-04-21 16:29 59.75660 98.39573 37004 ft 516 kts 68°
2026-04-21 16:29 59.78001 98.53071 37002 ft 516 kts 69°
2026-04-21 16:30 59.80327 98.66584 37002 ft 516 kts 69°
2026-04-21 16:30 59.82641 98.80124 37003 ft 516 kts 69°
2026-04-21 16:31 59.84939 98.93674 36998 ft 516 kts 69°
2026-04-21 16:31 59.87208 99.07146 36995 ft 515 kts 69°
2026-04-21 16:32 59.89478 99.20725 36993 ft 515 kts 69°
2026-04-21 16:32 59.91732 99.34315 36994 ft 514 kts 70°
2026-04-21 16:33 59.93966 99.47888 36994 ft 514 kts 70°
2026-04-21 16:33 59.96169 99.61378 36994 ft 514 kts 70°
2026-04-21 16:34 59.98372 99.74968 36994 ft 513 kts 70°
2026-04-21 16:34 60.00557 99.88552 36994 ft 513 kts 70°
2026-04-21 16:35 60.02732 100.02181 36994 ft 512 kts 70°
2026-04-21 16:35 60.04874 100.15711 36994 ft 512 kts 71°
2026-04-21 16:36 60.07015 100.29331 36995 ft 512 kts 71°
2026-04-21 16:36 60.09141 100.42959 36995 ft 512 kts 71°
2026-04-21 16:37 60.11254 100.56619 36993 ft 511 kts 71°
2026-04-21 16:37 60.13347 100.70253 36995 ft 510 kts 71°
2026-04-21 16:38 60.15421 100.83877 36993 ft 509 kts 72°
2026-04-21 16:38 60.17468 100.97428 36994 ft 508 kts 72°
2026-04-21 16:39 60.19506 101.11038 36988 ft 508 kts 72°
2026-04-21 16:39 60.21530 101.24669 36985 ft 508 kts 72°
2026-04-21 16:40 60.23541 101.38326 36984 ft 507 kts 72°
2026-04-21 16:40 60.25532 101.51973 36984 ft 508 kts 73°
2026-04-21 16:41 60.27185 101.63362 36985 ft 508 kts 72°
2026-04-21 16:41 60.29507 101.79274 36984 ft 508 kts 72°
2026-04-21 16:42 60.31489 101.92982 36962 ft 508 kts 73°
2026-04-21 16:42 60.33458 102.06755 36957 ft 508 kts 73°
2026-04-21 16:43 60.35403 102.20490 36957 ft 508 kts 73°
2026-04-21 16:43 60.37494 102.34127 36956 ft 507 kts 70°
2026-04-21 16:44 60.39905 102.47446 36957 ft 506 kts 69°
2026-04-21 16:44 60.42348 102.60844 36957 ft 505 kts 69°
2026-04-21 16:45 60.44759 102.74232 36957 ft 505 kts 69°
2026-04-21 16:45 60.47144 102.87617 36957 ft 504 kts 70°
2026-04-21 16:46 60.49513 103.01005 36957 ft 503 kts 70°
2026-04-21 16:46 60.51881 103.14406 36958 ft 503 kts 70°
2026-04-21 16:47 60.54215 103.27721 36956 ft 503 kts 70°
2026-04-21 16:47 60.56543 103.41118 36958 ft 502 kts 70°
2026-04-21 16:48 60.58860 103.54547 36956 ft 502 kts 70°
2026-04-21 16:48 60.61161 103.67987 36958 ft 502 kts 71°
2026-04-21 16:49 60.63450 103.81452 36956 ft 502 kts 71°
2026-04-21 16:49 60.65714 103.94871 36957 ft 502 kts 71°
2026-04-21 16:50 60.67974 104.08364 36958 ft 501 kts 71°
2026-04-21 16:50 60.70217 104.21867 36957 ft 501 kts 71°
2026-04-21 16:51 60.72442 104.35370 36965 ft 500 kts 71°
2026-04-21 16:51 60.74644 104.48807 36967 ft 500 kts 72°
2026-04-21 16:52 60.76839 104.62326 36966 ft 499 kts 72°
2026-04-21 16:52 60.78646 104.73543 36966 ft 499 kts 72°
2026-04-21 16:53 60.81173 104.89359 36966 ft 498 kts 72°
2026-04-21 16:53 60.83320 105.02913 36966 ft 498 kts 72°
2026-04-21 16:54 60.85447 105.16447 36966 ft 498 kts 73°
2026-04-21 16:54 60.87544 105.29899 36966 ft 496 kts 73°
2026-04-21 16:55 60.89650 105.43502 36966 ft 496 kts 73°
2026-04-21 16:55 60.91715 105.56952 36966 ft 496 kts 73°
2026-04-21 16:56 60.93779 105.70494 36966 ft 495 kts 73°
2026-04-21 16:56 60.95827 105.84044 36966 ft 495 kts 73°
2026-04-21 16:57 60.97865 105.97624 36968 ft 495 kts 74°
2026-04-21 16:57 60.99884 106.11190 36976 ft 494 kts 74°
2026-04-21 16:58 61.01887 106.24767 36975 ft 493 kts 74°
2026-04-21 16:58 61.03539 106.36049 36975 ft 493 kts 75°
2026-04-21 16:59 61.05842 106.51900 36966 ft 492 kts 75°
2026-04-21 16:59 61.07468 106.63188 36952 ft 492 kts 75°
2026-04-21 17:00 61.09409 106.76758 36949 ft 491 kts 75°
2026-04-21 17:00 61.11334 106.90319 36948 ft 491 kts 75°
2026-04-21 17:01 61.13246 107.03916 36948 ft 491 kts 75°
2026-04-21 17:01 61.15130 107.17414 36941 ft 490 kts 76°
2026-04-21 17:02 61.17011 107.31020 36938 ft 490 kts 76°
2026-04-21 17:02 61.18880 107.44645 36938 ft 489 kts 76°
2026-04-21 17:03 61.20717 107.58156 36945 ft 489 kts 76°
2026-04-21 17:03 61.22565 107.71860 36947 ft 489 kts 76°
2026-04-21 17:04 61.24369 107.85378 36947 ft 488 kts 76°
2026-04-21 17:04 61.26169 107.98992 36947 ft 488 kts 76°
2026-04-21 17:05 61.28105 108.12527 36947 ft 487 kts 75°
2026-04-21 17:05 61.30119 108.26014 36947 ft 487 kts 75°
2026-04-21 17:06 61.32113 108.39504 36940 ft 487 kts 75°
2026-04-21 17:06 61.34087 108.53006 36939 ft 487 kts 75°
2026-04-21 17:07 61.36047 108.66540 36938 ft 487 kts 75°
2026-04-21 17:07 61.37990 108.80069 36938 ft 486 kts 75°
2026-04-21 17:08 61.39930 108.93616 36938 ft 486 kts 76°
2026-04-21 17:08 61.41861 109.07220 36938 ft 486 kts 76°
2026-04-21 17:09 61.44703 109.27499 36939 ft 485 kts 76°
2026-04-21 17:09 61.46587 109.41083 36938 ft 485 kts 76°
2026-04-21 17:10 61.48453 109.54661 36938 ft 485 kts 76°
2026-04-21 17:10 61.50303 109.68234 36938 ft 484 kts 76°
2026-04-21 17:11 61.52141 109.81830 36937 ft 484 kts 76°
2026-04-21 17:11 61.53962 109.95413 36939 ft 483 kts 77°
2026-04-21 17:12 61.55770 110.09028 36939 ft 483 kts 77°
2026-04-21 17:12 61.57564 110.22648 36939 ft 483 kts 77°
2026-04-21 17:13 61.59334 110.36209 36938 ft 483 kts 77°
2026-04-21 17:13 61.61101 110.49862 36932 ft 483 kts 77°
2026-04-21 17:14 61.62850 110.63511 36928 ft 483 kts 77°
2026-04-21 17:14 61.64594 110.77221 36931 ft 483 kts 77°
2026-04-21 17:15 61.66311 110.90855 36929 ft 483 kts 77°
2026-04-21 17:15 61.68022 111.04557 36928 ft 484 kts 77°
2026-04-21 17:16 61.69720 111.18302 36930 ft 484 kts 77°
2026-04-21 17:16 61.71405 111.32065 36928 ft 484 kts 77°
2026-04-21 17:17 61.73072 111.45820 36929 ft 483 kts 78°
2026-04-21 17:17 61.74732 111.59602 36930 ft 483 kts 78°
2026-04-21 17:18 61.76371 111.73297 36929 ft 483 kts 78°
2026-04-21 17:18 61.78004 111.87103 36930 ft 483 kts 78°
2026-04-21 17:19 61.79621 112.00935 36930 ft 483 kts 78°
2026-04-21 17:19 61.81152 112.14791 36930 ft 482 kts 81°
2026-04-21 17:20 61.82402 112.28747 36929 ft 482 kts 82°
2026-04-21 17:20 61.83604 112.42634 36930 ft 482 kts 82°
2026-04-21 17:21 61.84802 112.56624 36929 ft 482 kts 82°
2026-04-21 17:21 61.85987 112.70620 36929 ft 482 kts 82°
2026-04-21 17:22 61.87159 112.84627 36929 ft 482 kts 82°
2026-04-21 17:22 61.88316 112.98637 36929 ft 481 kts 82°
2026-04-21 17:23 61.89461 113.12680 36929 ft 482 kts 82°
2026-04-21 17:23 61.90589 113.26696 36929 ft 481 kts 82°
2026-04-21 17:24 61.91703 113.40741 36928 ft 481 kts 82°
2026-04-21 17:24 61.92796 113.54691 36928 ft 481 kts 83°
2026-04-21 17:25 61.93880 113.68732 36929 ft 480 kts 83°
2026-04-21 17:25 61.94949 113.82789 36930 ft 480 kts 83°
2026-04-21 17:26 61.96003 113.96844 36928 ft 480 kts 83°
2026-04-21 17:26 61.97037 114.10854 36930 ft 480 kts 83°
2026-04-21 17:27 61.98061 114.24939 36928 ft 480 kts 83°
2026-04-21 17:27 61.99075 114.38999 36928 ft 480 kts 83°
2026-04-21 17:28 62.00073 114.53074 36929 ft 480 kts 83°
2026-04-21 17:28 62.01054 114.67162 36928 ft 480 kts 84°
2026-04-21 17:29 62.02019 114.81271 36929 ft 480 kts 84°
2026-04-21 17:29 62.02964 114.95317 36930 ft 481 kts 84°
2026-04-21 17:30 62.03901 115.09486 36929 ft 481 kts 84°
2026-04-21 17:30 62.04829 115.23648 36928 ft 481 kts 84°
2026-04-21 17:31 62.05739 115.37803 36929 ft 481 kts 84°
2026-04-21 17:31 62.06629 115.51980 36928 ft 481 kts 84°
2026-04-21 17:32 62.07508 115.66093 36929 ft 482 kts 84°
2026-04-21 17:32 62.08387 115.80297 36930 ft 482 kts 85°
2026-04-21 17:33 62.09247 115.94502 36929 ft 482 kts 85°
2026-04-21 17:33 62.10091 116.08713 36929 ft 482 kts 85°
2026-04-21 17:34 62.10918 116.22924 36928 ft 482 kts 85°
2026-04-21 17:34 62.11733 116.37212 36929 ft 482 kts 85°
2026-04-21 17:35 62.12524 116.51350 36928 ft 482 kts 85°
2026-04-21 17:35 62.13305 116.65592 36930 ft 481 kts 85°
2026-04-21 17:36 62.14076 116.79825 36928 ft 481 kts 85°
2026-04-21 17:36 62.14827 116.94061 36928 ft 480 kts 86°
2026-04-21 17:37 62.15557 117.08282 36929 ft 480 kts 86°
2026-04-21 17:37 62.16279 117.22514 36928 ft 480 kts 86°
2026-04-21 17:38 62.16981 117.36668 36930 ft 480 kts 86°
2026-04-21 17:38 62.17666 117.50894 36937 ft 480 kts 86°
2026-04-21 17:39 62.18334 117.65137 36938 ft 480 kts 86°
2026-04-21 17:39 62.18875 117.79389 36937 ft 479 kts 88°
2026-04-21 17:40 62.19321 117.93659 36939 ft 479 kts 88°
2026-04-21 17:40 62.19762 118.07958 36937 ft 479 kts 88°
2026-04-21 17:41 62.20194 118.22239 36937 ft 479 kts 88°
2026-04-21 17:41 62.20608 118.36416 36939 ft 479 kts 89°
2026-04-21 17:42 62.21022 118.50789 36939 ft 479 kts 89°
2026-04-21 17:42 62.21415 118.64976 36946 ft 479 kts 89°
2026-04-21 17:43 62.21795 118.79256 36947 ft 479 kts 89°
2026-04-21 17:43 62.22157 118.93548 36947 ft 479 kts 89°
2026-04-21 17:44 62.22501 119.07858 36948 ft 479 kts 89°
2026-04-21 17:44 62.22836 119.22063 36947 ft 479 kts 89°
2026-04-21 17:45 62.23133 119.34044 36947 ft 479 kts 89°
2026-04-21 17:45 62.23470 119.48259 36954 ft 479 kts 90°
2026-04-21 17:46 62.23792 119.62571 36956 ft 480 kts 90°
2026-04-21 17:46 62.24096 119.76890 36957 ft 480 kts 90°
2026-04-21 17:47 62.24384 119.91226 36956 ft 480 kts 90°
2026-04-21 17:47 62.24658 120.05549 36956 ft 480 kts 90°
2026-04-21 17:48 62.24917 120.19893 36964 ft 480 kts 90°
2026-04-21 17:48 62.25162 120.34241 36965 ft 480 kts 90°
2026-04-21 17:49 62.25390 120.48526 36965 ft 480 kts 91°
2026-04-21 17:49 62.25605 120.62850 36966 ft 479 kts 91°
2026-04-21 17:50 62.25804 120.77175 36971 ft 479 kts 91°
2026-04-21 17:50 62.25987 120.91498 36973 ft 479 kts 91°
2026-04-21 17:51 62.26158 121.05857 36975 ft 479 kts 91°
2026-04-21 17:51 62.26312 121.20152 36974 ft 479 kts 91°
2026-04-21 17:52 62.26452 121.34405 36982 ft 478 kts 92°
2026-04-21 17:52 62.26577 121.48690 36984 ft 478 kts 92°
2026-04-21 17:53 62.26687 121.63012 36985 ft 478 kts 92°
2026-04-21 17:53 62.26784 121.77325 36987 ft 478 kts 92°
2026-04-21 17:54 62.26865 121.91629 36993 ft 478 kts 92°
2026-04-21 17:54 62.26931 122.05849 36994 ft 478 kts 92°
2026-04-21 17:55 62.26983 122.20182 36994 ft 478 kts 92°
2026-04-21 17:55 62.27020 122.34492 37002 ft 478 kts 93°
2026-04-21 17:56 62.27043 122.48808 37018 ft 478 kts 93°
2026-04-21 17:56 62.27052 122.63108 37027 ft 478 kts 93°
2026-04-21 17:57 62.27045 122.77327 37030 ft 478 kts 93°
2026-04-21 17:57 62.27023 122.91635 37031 ft 478 kts 94°
2026-04-21 17:58 62.26987 123.05921 37035 ft 479 kts 94°
2026-04-21 17:58 62.26935 123.20258 37038 ft 479 kts 94°
2026-04-21 17:59 62.26868 123.34574 37038 ft 479 kts 94°
2026-04-21 17:59 62.26787 123.48920 37044 ft 479 kts 94°
2026-04-21 18:00 62.26688 123.63163 37045 ft 479 kts 95°
2026-04-21 18:00 62.26574 123.77496 37050 ft 479 kts 95°
2026-04-21 18:01 62.26460 123.91857 37050 ft 479 kts 95°
2026-04-21 18:01 62.26330 124.06222 37047 ft 479 kts 95°
2026-04-21 18:02 62.26181 124.20560 37053 ft 479 kts 95°
2026-04-21 18:02 62.26017 124.34869 37058 ft 479 kts 95°
2026-04-21 18:03 62.25844 124.48907 37055 ft 468 kts 95°
2026-04-21 18:03 62.25653 124.62883 37058 ft 467 kts 96°
2026-04-21 18:04 62.25450 124.76853 37059 ft 467 kts 96°
2026-04-21 18:04 62.25343 124.83834 36848 ft 467 kts 96°
2026-04-21 18:04 62.25233 124.90783 36598 ft 464 kts 96°
2026-04-21 18:05 62.25122 124.97709 36315 ft 461 kts 96°
2026-04-21 18:05 62.25008 125.04559 35920 ft 459 kts 96°
2026-04-21 18:05 62.24890 125.11422 35436 ft 460 kts 97°
2026-04-21 18:05 62.24768 125.18294 34896 ft 460 kts 97°
2026-04-21 18:06 62.24645 125.25077 34328 ft 461 kts 97°
2026-04-21 18:06 62.24517 125.31957 33743 ft 461 kts 98°
2026-04-21 18:06 62.24384 125.38850 33145 ft 461 kts 98°
2026-04-21 18:06 62.24249 125.45730 32547 ft 461 kts 99°
2026-04-21 18:07 62.24111 125.52631 31922 ft 462 kts 99°
2026-04-21 18:07 62.23968 125.59551 31232 ft 464 kts 100°
2026-04-21 18:07 62.23820 125.66488 30593 ft 465 kts 100°
2026-04-21 18:07 62.23672 125.73391 30305 ft 461 kts 101°
2026-04-21 18:08 62.23519 125.80264 29816 ft 459 kts 101°
2026-04-21 18:08 62.23361 125.87098 29350 ft 456 kts 101°
2026-04-21 18:08 62.23199 125.93882 28842 ft 453 kts 101°
2026-04-21 18:08 62.23039 126.00514 28376 ft 449 kts 101°
2026-04-21 18:09 62.22876 126.07200 27930 ft 445 kts 101°
2026-04-21 18:09 62.22712 126.13798 27556 ft 439 kts 101°
2026-04-21 18:09 62.22547 126.20317 27158 ft 435 kts 101°
2026-04-21 18:09 62.22380 126.26767 26742 ft 430 kts 101°
2026-04-21 18:10 62.22212 126.33172 26320 ft 427 kts 101°
2026-04-21 18:10 62.22041 126.39511 25899 ft 423 kts 101°
2026-04-21 18:10 62.21868 126.45784 25493 ft 419 kts 101°
2026-04-21 18:10 62.21686 126.52015 25062 ft 416 kts 99°
2026-04-21 18:11 62.21512 126.58199 24634 ft 414 kts 99°
2026-04-21 18:11 62.21339 126.64354 24211 ft 411 kts 99°
2026-04-21 18:11 62.21166 126.70441 23786 ft 408 kts 99°
2026-04-21 18:11 62.20991 126.76422 23386 ft 405 kts 99°
2026-04-21 18:12 62.20812 126.82433 22965 ft 402 kts 99°
2026-04-21 18:12 62.20633 126.88406 22557 ft 399 kts 98°
2026-04-21 18:12 62.20532 126.94350 22154 ft 397 kts 97°
2026-04-21 18:12 62.20467 127.00250 21757 ft 394 kts 97°
2026-04-21 18:13 62.20402 127.06111 21360 ft 391 kts 97°
2026-04-21 18:13 62.20335 127.11937 20963 ft 389 kts 96°
2026-04-21 18:13 62.20265 127.17706 20566 ft 385 kts 97°
2026-04-21 18:13 62.20193 127.23443 20164 ft 382 kts 97°
2026-04-21 18:14 62.20040 127.34769 19368 ft 377 kts 96°
2026-04-21 18:14 62.19962 127.40304 18971 ft 374 kts 96°
2026-04-21 18:14 62.19881 127.45877 18586 ft 372 kts 96°
2026-04-21 18:15 62.19798 127.51416 18187 ft 369 kts 96°
2026-04-21 18:15 62.19713 127.56913 17795 ft 367 kts 96°
2026-04-21 18:15 62.19628 127.62368 17399 ft 365 kts 96°
2026-04-21 18:15 62.19540 127.67790 17006 ft 362 kts 96°
2026-04-21 18:16 62.19451 127.73174 16602 ft 360 kts 96°
2026-04-21 18:16 62.19360 127.78526 16223 ft 358 kts 95°
2026-04-21 18:16 62.19268 127.83838 15835 ft 355 kts 95°
2026-04-21 18:16 62.19175 127.89125 15444 ft 352 kts 95°
2026-04-21 18:17 62.19082 127.94300 15070 ft 350 kts 95°
2026-04-21 18:17 62.18986 127.99509 14679 ft 348 kts 95°
2026-04-21 18:17 62.18888 128.04712 14288 ft 346 kts 95°
2026-04-21 18:17 62.18790 128.09858 13904 ft 344 kts 95°
2026-04-21 18:18 62.18711 128.13921 13599 ft 342 kts 95°
2026-04-21 18:18 62.18619 128.18525 13251 ft 341 kts 95°
2026-04-21 18:18 62.18517 128.23596 12862 ft 339 kts 95°
2026-04-21 18:19 62.18414 128.28624 12480 ft 337 kts 95°
2026-04-21 18:19 62.18311 128.33625 12100 ft 334 kts 94°
2026-04-21 18:19 62.18205 128.38586 11711 ft 332 kts 94°
2026-04-21 18:19 62.18099 128.43512 11337 ft 330 kts 95°
2026-04-21 18:20 62.17993 128.48412 10965 ft 327 kts 95°
2026-04-21 18:20 62.17886 128.53201 10601 ft 324 kts 95°
2026-04-21 18:20 62.17779 128.57944 10483 ft 312 kts 95°
2026-04-21 18:20 62.17675 128.62498 10398 ft 299 kts 95°
2026-04-21 18:21 62.17573 128.66856 10308 ft 286 kts 95°
2026-04-21 18:21 62.17475 128.71012 10218 ft 272 kts 95°
2026-04-21 18:21 62.17379 128.74971 10131 ft 261 kts 95°
2026-04-21 18:21 62.17285 128.78819 10015 ft 257 kts 96°
2026-04-21 18:22 62.16945 128.82555 9644 ft 254 kts 113°
2026-04-21 18:22 62.16099 128.85843 9341 ft 251 kts 127°
2026-04-21 18:22 62.15038 128.88799 9063 ft 249 kts 128°
2026-04-21 18:22 62.13975 128.91677 8780 ft 247 kts 128°
2026-04-21 18:23 62.12912 128.94556 8502 ft 245 kts 128°
2026-04-21 18:23 62.11860 128.97415 8218 ft 244 kts 128°
2026-04-21 18:23 62.10818 129.00255 7944 ft 242 kts 128°
2026-04-21 18:23 62.09789 129.03058 7666 ft 241 kts 128°
2026-04-21 18:24 62.08753 129.05884 7387 ft 240 kts 128°
2026-04-21 18:24 62.07722 129.08688 7106 ft 240 kts 128°
2026-04-21 18:24 62.06693 129.11486 6827 ft 239 kts 128°
2026-04-21 18:24 62.05667 129.14271 6551 ft 238 kts 128°
2026-04-21 18:25 62.04640 129.17056 6273 ft 238 kts 128°
2026-04-21 18:25 62.03614 129.19831 5997 ft 237 kts 128°
2026-04-21 18:25 62.02592 129.22593 5718 ft 237 kts 128°
2026-04-21 18:25 62.01572 129.25342 5452 ft 237 kts 129°
2026-04-21 18:26 62.00546 129.28099 5186 ft 237 kts 128°
2026-04-21 18:26 61.99524 129.30855 4911 ft 236 kts 128°
2026-04-21 18:26 61.98523 129.33555 4629 ft 234 kts 128°
2026-04-21 18:26 61.97540 129.36305 4354 ft 232 kts 127°
2026-04-21 18:27 61.96566 129.39089 4101 ft 231 kts 127°
2026-04-21 18:27 61.95607 129.41826 3829 ft 230 kts 127°
2026-04-21 18:27 61.94666 129.44508 3560 ft 228 kts 127°
2026-04-21 18:27 61.93823 129.47349 3255 ft 230 kts 110°
2026-04-21 18:28 61.93741 129.50732 2951 ft 234 kts 79°
2026-04-21 18:28 61.94515 129.53728 2888 ft 231 kts 49°
2026-04-21 18:28 61.95741 129.55834 2901 ft 219 kts 41°
2026-04-21 18:28 61.96914 129.57666 2897 ft 204 kts 41°
2026-04-21 18:29 61.98040 129.59425 2778 ft 191 kts 41°
2026-04-21 18:29 61.99063 129.61042 2625 ft 175 kts 41°
2026-04-21 18:29 61.99989 129.62511 2428 ft 162 kts 41°
2026-04-21 18:29 62.00861 129.63906 2201 ft 153 kts 40°
2026-04-21 18:30 62.01706 129.65265 2001 ft 151 kts 39°
2026-04-21 18:30 62.02546 129.66612 1793 ft 151 kts 38°
2026-04-21 18:30 62.03385 129.67955 1582 ft 150 kts 37°
2026-04-21 18:30 62.04219 129.69289 1370 ft 150 kts 37°
2026-04-21 18:31 62.05054 129.70616 1162 ft 149 kts 37°
2026-04-21 18:31 62.05879 129.71951 977 ft 148 kts 37°
2026-04-21 18:31 62.06686 129.73281 742 ft 148 kts 37°
2026-04-21 18:31 62.07508 129.74591 629 ft 147 kts 37°
2026-04-21 18:32 62.08323 129.75910 490 ft 147 kts 36°
2026-04-21 18:32 62.09141 129.77201 402 ft 146 kts 36°
2026-04-21 18:32 62.09690 129.78072 334 ft 140 kts 37°
2026-04-21 18:32 62.10346 129.79123 332 ft 39 kts 37°
2026-04-21 18:33 62.10493 129.79359 329 ft 24 kts 36°
2026-04-21 18:33 62.10562 129.79407 328 ft 13 kts 358°
2026-04-21 18:33 62.10609 129.79497 324 ft 6 kts 176°
2026-04-21 18:33 62.10575 129.79477 328 ft 9 kts 208°
2026-04-21 18:34 62.10490 129.79349 329 ft 18 kts 217°
2026-04-21 18:34 62.10384 129.79180 332 ft 20 kts 216°
2026-04-21 18:34 62.10263 129.78988 331 ft 23 kts 217°
2026-04-21 18:34 62.10128 129.78771 329 ft 25 kts 217°
2026-04-21 18:35 62.09973 129.78523 336 ft 29 kts 217°
2026-04-21 18:35 62.09807 129.78258 335 ft 31 kts 217°
2026-04-21 18:35 62.09632 129.77979 336 ft 32 kts 217°
2026-04-21 18:35 62.09458 129.77700 341 ft 31 kts 217°
2026-04-21 18:36 62.09279 129.77416 334 ft 33 kts 217°
2026-04-21 18:36 62.09094 129.77121 335 ft 34 kts 217°
2026-04-21 18:36 62.08904 129.76818 338 ft 34 kts 217°
2026-04-21 18:36 62.08710 129.76508 339 ft 35 kts 217°
2026-04-21 18:37 62.08532 129.76213 336 ft 22 kts 235°
2026-04-21 18:37 62.08566 129.75950 335 ft 20 kts 305°
2026-04-21 18:37 62.08653 129.75699 339 ft 21 kts 293°
2026-04-21 18:37 62.08688 129.75424 339 ft 14 kts 275°
2026-04-21 18:38 62.08688 129.75272 338 ft 11 kts 269°
2026-04-21 18:38 62.08687 129.75209 339 ft 0 kts 269°
2026-04-21 18:38 62.08687 129.75208 336 ft 0 kts 269°